Time,TemperatureF,DewpointF,PressureIn,WindDirection,WindDirectionDegrees,WindSpeedMPH,WindSpeedGustMPH,Humidity,HourlyPrecipIn,Conditions,Clouds,dailyrainin,SolarRadiationWatts/m^2,SoftwareType,DateUTC
2013-07-28 00:00:00,56.0,53.0,30.01,NW,304,0.0,-999.0,89,-99.99,,,-99.99,0.000000,,2013-07-28 05:00:00,
2013-07-28 03:00:00,56.0,51.0,30.02,NNW,337,1.0,-999.0,81,-99.99,,,-99.99,0.000000,,2013-07-28 08:00:00,
2013-07-28 03:53:00,56.0,51.0,30.02,NNW,337,1.0,-999.0,81,-99.99,,,-99.99,0.000000,,2013-07-28 08:53:00,
2013-07-28 04:00:00,54.0,51.0,30.02,West,281,0.0,-999.0,91,-99.99,,,-99.99,0.000000,,2013-07-28 09:00:00,
2013-07-28 05:00:00,53.0,51.0,30.03,West,269,0.0,-999.0,91,-99.99,,,-99.99,0.000000,,2013-07-28 10:00:00,
2013-07-28 06:00:00,53.0,51.0,30.03,North,352,0.0,-999.0,92,-99.99,,,-99.99,0.090000,,2013-07-28 11:00:00,
2013-07-28 07:00:00,53.0,51.0,30.04,NNE,18,0.0,-999.0,93,-99.99,,,-99.99,16.040001,,2013-07-28 12:00:00,
2013-07-28 08:00:00,63.0,52.0,30.02,East,92,0.0,-999.0,69,-99.99,,,-99.99,153.100006,,2013-07-28 13:00:00,
2013-07-28 09:00:00,68.0,54.0,30.03,NE,39,0.0,-999.0,61,-99.99,,,-99.99,255.300003,,2013-07-28 14:00:00,
2013-07-28 09:53:00,68.0,54.0,30.03,NE,39,0.0,-999.0,61,-99.99,,,-99.99,255.300003,,2013-07-28 14:53:00,
2013-07-28 10:00:00,70.0,49.0,30.05,NNW,337,1.0,-999.0,47,-99.99,,,-99.99,349.399994,,2013-07-28 15:00:00,
2013-07-28 11:00:00,71.0,46.0,30.05,NNE,15,2.0,-999.0,40,-99.99,,,-99.99,453.799988,,2013-07-28 16:00:00,
2013-07-28 12:00:00,74.0,50.0,30.05,NNE,21,2.0,-999.0,44,-99.99,,,-99.99,610.799988,,2013-07-28 17:00:00,
2013-07-28 13:00:00,75.0,46.0,30.05,NNW,342,2.0,-999.0,35,-99.99,,,-99.99,715.000000,,2013-07-28 18:00:00,
2013-07-28 13:52:00,75.0,46.0,30.05,NNW,342,2.0,-999.0,35,-99.99,,,-99.99,715.000000,,2013-07-28 18:52:00,
2013-07-28 14:00:00,77.0,44.0,30.03,West,260,2.0,-999.0,31,-99.99,,,-99.99,715.000000,,2013-07-28 19:00:00,
2013-07-28 14:53:00,77.0,44.0,30.03,West,260,2.0,-999.0,31,-99.99,,,-99.99,715.000000,,2013-07-28 19:53:00,
2013-07-28 15:00:00,78.0,45.0,30.04,NW,315,2.0,-999.0,31,-99.99,,,-99.99,602.799988,,2013-07-28 20:00:00,
2013-07-28 15:53:00,78.0,45.0,30.04,NW,315,2.0,-999.0,31,-99.99,,,-99.99,602.799988,,2013-07-28 20:53:00,
2013-07-28 16:00:00,77.0,45.0,30.04,WSW,255,2.0,-999.0,32,-99.99,,,-99.99,502.399994,,2013-07-28 21:00:00,
2013-07-28 17:00:00,75.0,52.0,30.04,WSW,252,2.0,-999.0,45,-99.99,,,-99.99,313.799988,,2013-07-28 22:00:00,
2013-07-28 18:00:00,75.0,52.0,30.03,WSW,240,2.0,-999.0,44,-99.99,,,-99.99,277.399994,,2013-07-28 23:00:00,
2013-07-28 19:00:00,72.0,52.0,30.03,SW,235,2.0,-999.0,49,-99.99,,,-99.99,155.199997,,2013-07-29 00:00:00,
2013-07-28 20:00:00,70.0,52.0,30.01,WSW,243,1.0,-999.0,53,-99.99,,,-99.99,29.360001,,2013-07-29 01:00:00,
2013-07-28 21:00:00,67.0,54.0,30.00,SE,138,0.0,-999.0,64,-99.99,,,-99.99,4.090000,,2013-07-29 02:00:00,
2013-07-28 22:00:00,65.0,56.0,30.03,SW,231,0.0,-999.0,72,-99.99,,,-99.99,0.000000,,2013-07-29 03:00:00,
2013-07-28 23:00:00,63.0,55.0,30.04,SW,214,0.0,-999.0,76,-99.99,,,-99.99,0.000000,,2013-07-29 04:00:00,